Wind_Speed
2 4 4 7 6 3 2 3 6 6 7 6 11 15 13 10 11 13 15 14 12 16 14 17 20 21 24 26 28 26 23 21 18 16 14 8 8 7 6 6 7 8 12 14
5 3 8 3 3 3 4 4 11 10 8 6 4 16 5 8 14 20 17 14 14 8 7 10 17 22 27 27 29 26 25 26 23 17 15 7 8 7 5 6 7 8 8 11
7 5 6 5 4 4 4 5 7 10 3 1 2 8 3 6 9 8 10 9 9 10 12 8 13 24 26 29 30 27 25 23 23 18 14 10 9 7 8 8 7 7 9 9
5 4 7 4 6 8 4 10 12 7 3 4 1 5 6 5 9 9 10 12 14 12 7 7 10 18 26 29 15 22 21 24 14 17 15 14 13 10 10 9 7 8 9 8
8 5 5 5 7 8 11 4 6 1 4 2 1 4 8 2 6 9 12 11 13 15 11 10 6 11 17 16 23 34 17 42 28 20 17 17 11 12 10 9 9 9 9 9
8 3 6 8 5 9 2 4 7 5 3 2 3 6 6 4 5 9 3 7 6 5 6 8 14 12 11 18 26 34 11 31 28 23 20 13 10 13 11 12 12 11 11 11
3 4 4 4 3 1 4 6 3 3 4 6 2 3 9 6 6 7 12 3 8 12 10 11 14 17 15 9 25 27 20 24 30 27 19 12 12 12 14 14 13 13 12 12
6 7 7 4 7 6 3 7 6 6 4 5 3 5 6 6 5 6 4 4 10 12 10 8 10 17 21 19 23 19 21 16 20 20 15 12 12 11 9 11 14 12 12 10
5 6 4 5 4 7 3 3 4 7 3 3 3 7 9 5 5 8 9 12 11 10 8 9 5 13 12 10 10 24 26 20 16 17 14 12 10 9 9 12 12 12 12 11
6 3 4 4 4 4 3 6 3 3 3 4 5 4 6 6 2 7 6 6 6 8 8 9 9 10 19 18 11 6 12 16 16 13 11 11 10 6 10 14 11 10 11 11
6 5 6 1 3 7 2 1 6 5 4 6 3 6 8 7 3 7 5 6 8 8 7 5 4 17 14 15 12 15 12 18 18 18 15 13 10 13 15 12 11 11 11 10
6 6 5 12 2 1 3 5 6 5 4 2 4 6 2 4 4 6 9 9 7 4 4 5 8 13 18 28 11 25 19 21 23 22 16 13 16 16 14 14 14 13 11 10
5 1 1 8 6 2 4 4 5 5 3 5 6 6 2 3 4 6 10 10 9 4 3 4 5 5 8 24 36 29 24 21 21 19 17 17 18 17 14 13 15 13 10 10
7 2 6 8 8 4 3 4 4 6 4 5 5 6 7 8 9 6 8 8 5 4 6 5 6 5 9 17 22 22 27 24 22 19 18 19 18 16 15 15 15 13 13 10
4 2 1 1 2 3 3 3 5 3 6 5 4 6 7 8 8 7 7 3 4 6 7 8 4 5 7 7 11 20 24 22 22 21 19 19 17 15 14 14 13 13 10 11
4 1 2 5 5 5 3 8 2 3 3 3 2 4 1 5 2 3 7 10 10 13 9 8 9 5 1 8 15 21 25 24 21 20 18 19 17 15 12 13 13 11 12 11
3 3 3 2 4 4 5 7 3 5 6 3 2 4 12 14 8 6 7 7 8 11 8 12 14 11 7 12 16 19 24 25 26 21 22 20 18 17 15 14 13 13 12 12
3 3 2 3 2 3 5 5 8 12 8 8 5 7 10 12 8 4 1 7 6 4 5 6 4 8 13 17 17 14 21 24 21 21 23 22 20 18 17 16 15 14 13 13
1 4 3 3 3 2 4 4 4 4 2 11 10 12 10 12 1 5 12 2 3 4 4 9 16 14 14 14 15 13 14 18 19 23 24 23 22 20 19 19 19 16 15 15
5 5 4 2 3 5 3 4 3 1 1 3 7 7 10 8 6 3 11 5 2 5 4 8 11 13 16 14 15 4 15 19 23 22 26 22 22 22 23 22 20 18 16 17
3 3 4 2 3 2 4 10 3 3 3 4 5 6 6 4 3 8 5 5 3 5 8 14 16 13 12 18 18 23 19 24 23 23 25 21 24 24 24 24 22 20 20 18
2 2 1 2 3 2 6 2 5 1 4 4 5 6 8 7 7 4 5 4 3 2 9 13 12 10 14 21 22 24 28 24 18 21 22 22 25 26 24 27 22 20 18 17
2 3 4 3 4 2 1 3 3 2 3 4 3 6 6 7 5 9 6 6 5 5 2 4 6 9 9 11 16 13 18 22 18 22 21 22 25 25 27 26 21 19 19 18
3 2 3 2 3 4 3 3 2 2 3 6 6 7 5 6 7 7 7 7 7 12 9 9 9 11 8 11 14 14 10 12 17 18 20 18 27 24 23 20 16 18 21 22
3 1 3 1 2 3 3 4 4 5 4 2 3 4 6 6 9 9 8 8 9 9 7 7 8 7 9 13 14 15 12 11 12 11 9 11 11 12 12 12 12 15 14 13
2 5 3 4 5 4 3 3 3 4 5 5 4 6 4 6 11 11 7 11 8 8 6 2 3 3 5 10 18 18 14 11 11 12 13 11 12 12 11 10 7 4 2 1
Wind_Direction
13 91 188 224 201 227 284 222 203 244 267 152 225 245 237 221 224 212 212 209 210 219 219 226 221 216 223 224 224 215 212 213 230 211 195 208 202 184 168 153 154 175 192 212
18 219 219 162 137 211 232 283 279 300 217 160 214 251 260 209 229 217 213 214 216 216 228 202 199 202 216 215 216 211 211 214 216 217 199 213 210 207 191 174 176 178 191 204
178 224 122 158 168 195 236 209 260 233 118 245 353 306 247 262 249 237 232 216 218 210 208 202 181 194 204 210 211 208 215 213 218 210 205 195 189 195 200 199 191 191 188 192
225 235 208 165 232 159 250 216 236 235 89 238 108 277 244 251 265 244 233 211 198 201 185 198 187 176 202 207 190 65 41 3 290 218 222 201 196 202 209 202 196 192 183 179
235 180 163 183 218 163 234 168 223 106 135 50 339 85 273 295 271 253 239 218 197 197 187 206 198 183 197 144 135 103 47 300 260 261 230 216 198 210 199 192 189 180 175 178
224 220 175 211 211 190 192 73 47 54 84 26 224 140 284 269 245 303 301 232 190 118 81 82 89 125 159 136 145 152 168 246 226 255 240 209 207 201 200 191 195 187 175 168
330 219 249 180 228 168 82 65 350 4 12 219 49 68 234 266 272 251 284 233 166 129 111 111 103 90 95 158 170 172 184 213 227 234 217 196 195 203 213 205 195 199 188 177
182 307 176 187 184 182 157 151 153 196 195 245 56 230 250 247 353 349 334 61 92 118 121 134 162 163 151 170 193 219 199 203 218 206 195 190 210 220 219 229 208 203 198 183
154 265 292 231 172 136 181 174 173 104 9 68 243 292 311 268 19 33 45 82 110 129 143 144 167 135 215 344 221 169 199 193 187 178 168 176 204 212 187 155 157 171 171 169
203 301 234 297 105 43 164 151 76 15 159 231 290 277 243 269 244 63 50 103 156 173 187 193 172 146 63 54 50 156 197 161 159 163 174 167 184 184 168 155 161 160 161 164
140 137 279 336 178 184 64 235 57 121 120 162 183 264 216 230 104 134 164 209 207 194 193 197 109 88 104 80 59 7 202 160 167 171 173 161 164 145 146 151 151 151 161 168
201 156 176 217 228 264 173 197 138 128 227 121 147 273 274 204 204 174 194 219 239 235 190 192 137 143 126 117 70 260 253 172 177 169 172 162 148 146 148 149 149 152 159 171
185 228 38 331 349 354 205 164 113 114 86 186 136 261 324 280 216 207 205 224 232 241 256 229 180 166 164 148 184 218 229 184 176 173 168 164 156 152 150 154 153 158 166 158
84 110 157 204 204 168 167 155 157 134 113 165 222 281 288 259 240 185 226 242 272 342 270 221 140 138 151 170 188 206 205 187 179 176 172 171 170 168 160 164 164 163 159 160
90 106 256 145 249 148 152 164 172 154 154 127 250 206 283 300 231 201 193 216 220 242 269 274 189 192 172 163 181 188 199 184 184 180 179 176 175 170 165 164 166 164 171 168
6 92 3 11 359 23 90 25 294 56 75 38 61 272 174 293 302 227 178 171 197 221 222 251 272 263 170 168 187 194 193 187 186 193 182 174 171 175 172 175 176 179 175 176
44 102 65 235 352 28 31 342 19 99 40 358 57 333 327 325 318 257 222 214 217 217 239 231 229 238 214 201 191 190 190 188 190 186 178 179 181 180 181 188 184 184 185 192
129 93 70 173 17 193 191 11 63 103 65 5 310 310 313 302 300 40 94 190 213 209 227 199 192 193 201 185 179 188 188 198 190 181 185 185 186 190 190 191 198 204 203 210
128 126 98 146 163 128 352 40 24 31 22 7 343 333 327 321 312 7 357 294 168 220 231 170 173 178 176 177 177 173 197 202 197 193 198 196 195 198 203 203 205 212 214 224
67 67 122 135 135 175 234 307 9 41 88 321 349 340 338 341 13 309 336 334 75 106 106 149 152 155 170 162 165 108 219 209 208 204 215 204 210 204 219 216 210 208 218 230
11 14 144 146 128 307 276 308 275 160 220 338 335 330 339 30 254 288 332 353 3 121 124 135 149 152 172 180 173 175 210 222 220 207 218 215 222 220 224 227 220 218 213 221
94 94 85 77 102 150 347 282 113 5 348 340 338 332 330 312 316 332 323 296 319 334 116 121 131 148 191 190 195 179 186 213 214 223 223 223 228 230 229 228 224 227 227 228
32 174 162 170 200 244 336 38 357 15 269 285 295 303 295 301 302 312 296 283 272 259 202 180 159 186 195 213 229 222 227 197 201 218 228 235 233 234 232 232 226 224 228 227
23 151 97 63 282 250 285 287 251 263 245 268 263 274 282 269 281 276 286 285 291 295 274 255 213 147 194 228 211 203 219 213 207 212 220 233 242 238 241 233 218 224 229 225
205 126 146 335 286 316 268 239 275 297 283 287 278 251 258 283 273 260 260 248 254 265 276 255 236 195 153 142 135 150 147 150 167 188 204 213 218 216 197 195 203 218 227 234
173 160 133 212 222 158 246 287 293 303 314 326 326 322 339 314 298 292 288 301 289 271 283 304 290 195 167 151 144 136 136 137 141 136 132 136 156 166 167 165 155 178 211 292
Height
769 788 801 790 787 782 787 794 803 789 768 779 783 775 767 765 763 762 761 761 764 760 756 763 770 776 777 779 784 783 786 792 796 798 801 803 800 798 797 797 798 800 802 805
784 797 779 773 777 784 788 794 794 777 765 775 779 778 768 766 758 750 755 758 757 760 760 760 765 768 767 775 776 779 780 783 788 792 795 797 800 800 799 798 798 799 801 802
791 778 768 774 782 789 790 795 790 788 772 767 774 789 772 761 756 753 751 751 754 754 757 759 761 760 765 768 771 779 783 788 788 789 791 793 796 799 798 798 798 798 799 801
780 765 770 776 783 786 799 774 770 778 786 810 778 822 789 771 765 755 749 747 746 747 751 755 757 760 762 768 782 792 792 794 798 791 791 791 792 796 797 798 797 797 798 800
779 770 771 777 774 773 782 764 772 774 791 790 792 812 789 775 762 753 745 740 738 738 746 751 755 758 762 774 779 774 785 791 785 792 788 790 790 794 796 796 797 798 797 799
765 752 757 761 754 760 752 769 785 799 807 824 798 806 803 779 759 752 738 739 739 748 752 754 755 758 765 776 773 775 776 776 779 786 790 788 788 792 795 794 795 798 797 798
768 764 750 745 760 757 770 793 829 824 833 832 802 807 792 758 752 751 744 737 737 743 749 752 753 757 761 773 773 773 765 779 778 784 789 787 789 789 791 792 792 795 794 797
793 796 759 744 754 763 767 785 825 833 843 820 804 809 781 750 748 746 737 738 742 744 745 747 746 742 740 745 757 768 773 768 777 784 784 786 790 789 790 791 791 793 794 796
795 785 748 741 737 746 772 788 779 822 829 828 815 792 763 750 749 752 750 749 749 745 744 744 744 741 742 757 760 755 772 774 776 783 781 784 789 790 788 788 790 791 793 796
762 785 754 741 736 745 753 763 794 813 819 824 819 804 798 757 751 761 758 755 751 745 740 737 733 745 765 760 756 756 769 771 775 779 783 783 789 789 789 789 791 794 795 798
759 771 767 747 755 765 771 780 793 801 813 826 827 808 765 757 755 762 758 753 749 746 746 743 745 755 757 759 756 758 769 769 777 780 783 783 787 788 789 791 791 793 798 801
750 768 784 767 746 745 749 762 778 805 803 820 817 803 747 755 757 758 754 748 746 744 745 746 750 749 749 750 752 761 778 772 777 776 780 782 785 788 790 790 792 796 800 801
746 771 789 780 768 748 752 760 775 791 798 809 811 796 748 755 758 757 753 746 743 742 744 747 750 749 747 749 757 770 772 772 775 776 775 779 782 786 789 793 793 796 800 801
742 774 770 782 772 757 756 753 765 772 795 803 799 771 750 749 752 755 752 747 746 750 749 745 748 748 750 747 756 763 769 769 772 773 775 780 783 787 787 791 794 796 797 800
750 766 758 755 752 746 746 751 756 758 770 774 768 774 753 752 748 748 750 750 752 751 749 740 746 751 752 759 763 767 772 770 773 772 777 782 786 789 790 793 796 796 799 799
755 769 758 760 755 753 750 757 753 756 764 762 764 764 752 751 746 747 746 746 749 748 749 748 743 746 750 758 761 763 764 767 773 777 777 783 786 792 793 795 796 798 799 801
760 770 777 774 768 760 782 776 763 770 776 772 774 765 760 748 749 747 744 746 744 744 745 744 744 750 754 755 757 761 762 765 770 770 778 783 787 788 791 796 796 797 799 800
765 774 783 785 777 790 776 767 762 775 783 780 776 772 765 759 750 747 742 742 742 738 740 741 743 750 752 754 758 763 764 773 772 772 779 782 787 790 791 794 797 798 798 799
760 773 787 789 792 779 774 774 779 785 790 778 776 769 759 751 746 749 744 740 738 734 734 737 743 746 749 754 757 758 766 771 773 774 780 782 784 788 791 791 793 797 798 800
765 770 775 792 783 791 780 771 770 777 792 777 775 771 765 756 764 764 748 744 739 733 736 736 739 744 748 748 752 748 768 770 773 776 782 781 784 784 790 790 791 792 796 800
783 787 785 791 787 792 771 772 769 781 789 777 775 772 768 766 763 756 751 746 744 739 741 737 741 742 743 746 746 749 765 770 771 772 779 778 783 784 786 791 790 790 791 794
785 789 795 797 793 793 770 768 776 782 779 777 775 773 770 765 759 754 752 749 748 743 738 737 740 745 749 744 746 745 747 758 765 774 775 776 779 781 781 785 786 788 791 793
787 786 790 790 790 778 778 777 777 780 781 779 778 774 770 766 762 758 751 747 744 745 739 738 734 735 735 737 742 740 748 749 761 768 768 774 777 776 778 780 783 784 787 789
777 779 785 788 778 778 776 776 778 779 779 777 774 771 768 766 761 757 754 749 746 743 739 738 738 734 736 736 733 735 747 753 758 762 763 765 771 771 774 777 776 779 782 783
779 776 785 785 779 778 775 776 776 774 773 771 770 768 766 764 760 756 750 745 743 741 741 739 735 736 731 731 732 737 744 746 753 756 756 759 765 768 770 772 774 777 777 779
775 778 785 788 776 778 777 773 773 772 769 768 768 766 766 765 759 753 749 746 743 741 739 740 740 737 737 739 738 736 741 745 750 751 752 755 763 767 769 771 773 775 777 777